Powrót do katalogu

STARLINK-36489

AktywnyŁącznośćVLEO
NORAD 67328·PAYLOAD·🇺🇸 United States

Wystrzelony Jan 4, 2026 z Cape Canaveral Space Force Station

Loading…

Następne Przeloty (najbliższe 24 godziny)

TLE

ŚwieżeSource: CelesTrak SupGP

Epoka: Sep 14, 2026, 21:21 UTC

1 67328C 26002Z   26257.89006944 -.00020761  00000+0 -75202-3 0  2571
2 67328  43.0019 336.9497 0001539 275.7594  43.7008 15.27585346    12

Śledź STARLINK-36489 w czasie rzeczywistym z AllMySat

Download on the App Store